Wind_Speed
13 12 11 11 10 9 8 8 9 8 7 6 6 7 8 9 9 10 11 11 12 13 13 12 11 12 12 12 11 10 9 8 7 7 7 7 8 7 7 7 7 7 7 7
16 15 14 13 11 10 10 10 11 10 8 8 8 8 9 10 10 10 11 12 13 13 13 12 12 12 12 12 11 11 9 9 9 8 8 7 7 7 8 8 7 8 8 8
19 18 16 14 13 12 12 12 12 12 10 9 9 10 11 11 11 11 11 12 13 13 14 14 13 13 11 11 11 11 11 10 9 8 7 8 7 7 8 7 7 7 8 8
21 20 18 17 15 14 14 14 13 12 11 11 10 9 13 12 12 12 12 12 13 13 13 13 13 13 12 11 11 12 11 10 9 7 7 7 7 7 7 7 7 7 8 9
23 21 20 19 17 17 16 15 14 13 13 13 13 11 12 13 12 12 12 12 13 13 13 14 13 13 13 13 11 11 11 9 8 7 7 7 7 7 7 7 8 8 8 9
25 23 22 20 19 18 17 15 15 14 14 14 14 13 12 13 12 12 12 12 12 13 13 13 13 13 12 12 11 10 10 8 7 7 7 7 7 8 8 9 9 9 10 10
26 24 23 22 21 19 18 16 15 14 14 15 14 13 14 13 12 12 12 11 12 12 12 12 12 12 12 11 10 9 9 8 8 8 8 8 7 8 8 9 10 11 11 11
27 26 25 24 22 21 19 18 16 14 13 14 15 14 14 13 12 12 11 11 11 12 11 11 11 12 13 12 10 9 9 9 8 8 8 8 8 8 8 8 9 10 11 11
29 29 27 26 24 23 22 20 19 18 17 15 16 15 14 13 13 12 11 11 11 11 11 11 11 12 13 12 10 10 10 9 9 9 8 8 8 9 9 9 9 9 10 11
31 30 29 27 26 25 23 22 21 18 17 15 16 15 13 13 13 12 12 11 11 12 12 12 11 12 11 10 9 9 9 8 8 8 8 8 9 9 9 9 9 9 11 12
32 31 30 28 27 26 25 24 22 20 19 15 13 14 14 13 13 12 11 11 11 12 12 11 11 11 10 8 8 8 8 8 8 8 8 8 8 9 9 9 10 10 11 11
31 31 31 30 29 27 26 24 23 21 20 17 15 15 16 14 14 13 13 13 12 11 11 11 11 10 9 8 8 9 8 7 7 7 8 8 8 8 9 10 10 10 11 11
31 31 30 29 29 27 26 25 24 22 21 19 16 15 16 14 14 14 14 13 12 11 11 11 10 10 9 9 9 9 8 8 7 7 7 8 9 9 9 9 10 10 11 12
31 30 29 25 25 26 26 25 24 23 22 20 17 16 16 14 14 14 14 13 12 11 11 11 10 10 10 10 10 9 8 7 7 7 8 9 9 10 10 10 10 11 11 12
31 30 29 28 28 27 26 26 26 24 22 20 18 17 15 15 14 14 14 13 13 12 12 12 12 11 11 11 10 10 9 8 8 8 9 10 10 10 10 10 10 11 12 12
32 30 29 28 28 28 28 27 26 25 23 21 19 17 17 16 15 15 14 14 13 13 13 13 12 12 11 11 11 10 10 9 10 10 10 10 10 10 11 11 12 12 13 13
33 31 29 28 28 29 30 28 27 26 24 21 19 18 18 17 17 16 15 15 15 14 13 13 12 12 11 11 11 11 11 11 11 11 11 11 11 11 12 12 12 13 14 14
34 33 31 29 29 29 28 28 27 26 24 23 22 20 19 18 18 17 17 16 16 15 15 14 13 12 13 13 13 13 12 12 12 13 13 13 13 13 13 13 14 15 15 16
36 35 34 32 30 29 31 29 27 26 25 24 23 22 21 19 19 19 18 17 18 18 17 16 15 15 15 14 13 13 13 14 14 14 14 14 15 15 15 16 16 16 17 18
38 37 36 35 32 30 31 30 27 26 27 26 25 23 22 21 20 20 20 20 20 19 19 18 17 17 16 16 15 14 14 15 15 16 16 16 16 16 17 17 18 18 19 19
40 39 38 37 35 33 34 31 29 28 28 27 26 24 23 23 22 22 21 21 21 21 20 20 19 19 19 18 17 17 17 17 17 18 18 18 18 18 18 19 19 20 20 20
41 40 40 39 37 36 36 33 32 31 29 29 28 26 26 25 24 23 23 22 22 22 22 22 22 21 21 20 20 19 19 19 19 19 20 20 20 20 21 21 22 22 22 22
42 43 43 42 41 40 38 36 34 33 31 30 29 28 27 26 26 25 24 25 24 23 23 24 24 24 24 23 22 22 22 22 22 21 21 21 22 22 23 23 24 24 24 25
43 43 43 43 43 42 40 38 37 35 33 31 30 29 28 28 27 27 27 27 27 26 26 26 26 26 26 26 25 25 24 24 24 23 23 23 24 24 25 25 25 25 25 25
42 42 43 43 43 42 42 41 39 37 36 34 32 31 31 30 29 29 29 29 29 28 28 28 28 28 28 28 28 28 28 27 26 26 25 25 25 26 26 26 26 26 26 26
41 41 42 43 43 43 42 41 40 39 38 36 35 34 32 31 31 30 30 30 29 30 30 30 30 30 30 30 30 29 30 30 29 28 28 27 27 27 28 28 28 28 28 27
Wind_Direction
237 239 241 243 246 249 257 266 275 286 298 309 315 314 317 320 320 323 326 329 329 329 332 332 327 323 320 320 318 310 303 301 288 278 271 267 258 247 239 237 242 235 225 224
237 238 242 245 248 251 257 263 270 282 292 301 307 308 311 315 316 318 321 324 324 324 324 326 324 321 321 321 319 314 302 294 290 283 275 269 263 253 249 245 244 236 225 222
237 239 243 245 247 250 254 257 264 276 290 294 301 306 307 310 312 312 312 317 318 318 318 319 320 322 320 318 317 318 310 297 287 279 271 272 268 257 254 247 240 233 227 223
237 240 242 243 245 248 252 258 266 275 280 285 295 289 300 306 308 309 306 307 313 317 317 320 321 322 316 312 312 312 308 300 287 278 271 267 264 257 249 241 237 229 231 233
238 239 240 241 244 247 252 260 266 272 276 281 289 291 292 303 303 304 302 303 308 311 313 317 317 316 314 311 307 308 310 296 284 275 269 267 264 255 249 248 242 241 239 238
238 239 239 240 244 249 254 259 265 271 274 276 281 286 290 295 298 299 299 301 304 305 306 309 313 313 311 311 303 302 308 303 291 276 265 264 260 258 256 251 246 245 246 243
239 239 239 241 244 247 250 255 262 268 272 274 278 282 284 292 296 295 297 300 302 305 305 309 314 318 318 314 306 298 301 295 290 278 263 261 263 264 260 252 252 251 252 247
237 238 239 241 243 246 247 249 250 254 264 272 278 280 286 291 294 294 293 297 301 301 301 306 313 318 320 316 309 298 296 292 285 278 267 265 266 265 264 260 258 252 249 247
235 238 239 241 242 244 246 247 249 253 258 262 273 281 283 286 288 289 288 291 295 300 300 303 310 314 317 313 305 299 295 289 285 277 269 268 272 266 262 265 262 256 252 252
234 238 239 240 242 244 245 246 248 250 256 262 273 280 279 281 283 283 282 285 291 297 299 302 308 313 317 315 312 310 302 293 285 278 275 275 268 266 264 267 265 260 258 260
234 236 239 240 243 245 245 245 246 249 252 256 266 275 276 275 278 278 279 282 287 291 297 301 305 310 314 313 310 311 306 296 291 289 283 274 270 267 266 267 266 264 265 264
233 234 238 241 243 245 245 245 247 250 255 256 255 266 274 271 272 272 274 276 281 286 292 299 303 307 311 308 306 310 309 301 297 287 283 277 271 273 272 268 265 268 267 268
231 233 235 240 243 243 245 246 247 248 252 254 255 262 271 269 269 268 270 272 274 278 288 297 299 299 302 304 303 306 306 302 298 291 286 284 281 277 275 271 267 272 274 272
231 232 232 235 242 244 243 244 244 245 248 252 252 252 265 267 264 264 265 265 268 273 281 289 296 298 297 300 299 299 300 302 301 298 296 295 288 281 276 273 273 278 279 278
230 231 231 232 237 241 241 242 242 243 244 247 252 254 257 260 262 263 262 261 264 269 275 284 293 297 295 295 295 293 293 296 300 302 301 299 295 289 280 276 277 280 282 283
228 230 231 233 235 238 239 240 241 242 243 246 248 252 252 255 260 262 259 258 261 267 272 279 286 291 292 291 290 289 288 292 296 300 303 301 297 291 285 280 280 281 282 283
228 229 230 233 234 236 237 238 240 243 244 245 247 249 252 254 258 261 258 257 259 264 268 274 280 284 286 288 284 284 285 289 293 297 300 301 296 294 290 288 286 285 285 286
228 229 230 231 234 235 237 238 239 242 244 245 247 250 251 253 254 257 257 257 259 262 264 271 277 279 277 280 282 282 285 286 289 292 293 294 294 292 291 290 289 287 287 287
229 229 230 232 235 237 239 237 237 241 244 246 248 248 249 252 255 255 255 255 258 260 263 267 271 272 276 279 282 282 283 284 285 289 291 292 291 292 291 291 290 289 289 289
230 231 232 232 233 236 242 237 236 239 242 243 246 248 248 250 252 254 254 255 257 258 259 262 267 269 272 275 279 281 283 286 286 287 290 292 292 291 292 292 291 290 289 289
232 233 233 234 236 237 239 237 236 239 242 243 245 246 245 246 248 251 253 256 256 255 255 256 261 267 268 271 275 279 284 286 286 287 288 288 290 291 291 291 291 290 288 288
231 234 234 235 236 238 240 238 239 241 243 245 246 247 246 245 246 250 252 254 255 255 254 256 259 263 266 269 273 276 280 284 284 285 286 286 288 289 290 290 290 290 288 288
231 232 234 235 236 239 241 241 242 244 245 245 246 247 247 246 246 248 250 252 252 252 254 257 260 262 265 268 270 274 277 282 283 283 285 286 286 288 289 289 289 289 288 288
233 234 236 237 238 239 242 243 244 244 245 245 246 247 247 246 246 249 250 250 250 251 253 257 260 263 265 267 269 273 277 279 280 281 282 283 285 286 288 289 290 289 289 289
234 235 236 237 238 239 241 242 243 244 245 245 246 247 248 248 247 247 248 249 249 251 253 257 260 262 263 267 270 273 276 278 277 279 280 281 283 285 287 288 289 289 289 290
235 235 235 236 237 238 240 241 243 244 246 247 247 248 249 249 249 249 250 249 250 251 254 257 260 263 266 268 271 273 275 276 277 277 278 279 281 284 286 287 288 289 290 289
Height
5915 5918 5919 5921 5922 5923 5924 5925 5925 5925 5925 5926 5926 5925 5924 5923 5922 5921 5919 5917 5915 5913 5911 5909 5907 5905 5903 5902 5900 5899 5897 5896 5896 5896 5895 5895 5895 5895 5895 5895 5896 5897 5897 5898
5913 5915 5916 5918 5919 5920 5921 5922 5923 5923 5923 5924 5924 5924 5923 5922 5920 5919 5918 5916 5914 5912 5910 5908 5906 5904 5902 5900 5898 5897 5895 5894 5894 5894 5894 5894 5894 5894 5894 5894 5894 5895 5895 5897
5909 5912 5913 5915 5916 5918 5919 5920 5920 5921 5921 5922 5922 5922 5921 5920 5919 5918 5916 5915 5913 5910 5908 5906 5904 5902 5900 5899 5897 5895 5894 5893 5892 5892 5892 5892 5892 5893 5893 5893 5893 5893 5894 5895
5904 5907 5909 5911 5913 5914 5916 5917 5917 5918 5919 5920 5921 5922 5920 5918 5917 5915 5914 5912 5911 5909 5907 5905 5902 5900 5899 5897 5895 5894 5892 5891 5890 5890 5890 5890 5890 5891 5891 5891 5892 5892 5892 5894
5901 5903 5906 5908 5910 5911 5913 5914 5915 5916 5917 5918 5918 5919 5920 5915 5914 5913 5911 5910 5909 5907 5905 5903 5901 5899 5897 5895 5894 5892 5891 5889 5889 5889 5889 5889 5889 5889 5889 5890 5890 5890 5891 5892
5896 5899 5901 5904 5906 5908 5909 5911 5912 5913 5914 5915 5915 5916 5916 5914 5912 5911 5909 5908 5907 5905 5903 5901 5899 5897 5895 5893 5892 5891 5890 5888 5888 5888 5888 5887 5887 5887 5887 5888 5888 5888 5889 5890
5891 5894 5897 5899 5902 5904 5906 5908 5910 5911 5912 5913 5912 5912 5912 5910 5909 5908 5907 5906 5904 5902 5901 5899 5897 5895 5893 5891 5890 5889 5888 5887 5886 5886 5886 5886 5886 5885 5885 5886 5886 5886 5887 5887
5887 5890 5892 5895 5897 5900 5902 5905 5908 5910 5911 5910 5908 5909 5909 5907 5906 5905 5904 5903 5902 5900 5898 5897 5895 5893 5891 5889 5888 5887 5886 5885 5885 5884 5884 5884 5883 5883 5883 5883 5883 5883 5884 5884
5881 5884 5887 5889 5892 5895 5897 5900 5903 5905 5905 5906 5906 5905 5905 5904 5903 5902 5902 5901 5899 5898 5896 5895 5893 5892 5889 5887 5886 5884 5884 5883 5882 5882 5882 5882 5881 5881 5881 5881 5881 5881 5881 5882
5875 5878 5881 5884 5887 5890 5893 5895 5897 5900 5901 5903 5903 5902 5903 5901 5900 5899 5899 5898 5897 5896 5895 5893 5892 5890 5887 5885 5884 5882 5882 5881 5881 5880 5880 5880 5879 5879 5879 5879 5879 5878 5879 5879
5869 5873 5876 5879 5882 5884 5888 5890 5893 5895 5897 5900 5902 5902 5898 5898 5897 5897 5896 5896 5895 5894 5893 5892 5890 5888 5886 5884 5883 5882 5881 5880 5879 5878 5878 5878 5877 5877 5877 5877 5876 5876 5876 5876
5862 5867 5870 5873 5876 5879 5882 5885 5888 5891 5892 5894 5897 5900 5894 5894 5894 5894 5893 5893 5893 5892 5891 5890 5888 5886 5885 5883 5882 5880 5879 5878 5877 5877 5876 5876 5875 5875 5874 5874 5874 5874 5874 5874
5856 5860 5865 5868 5872 5874 5876 5879 5882 5885 5887 5889 5892 5896 5890 5890 5890 5890 5890 5890 5890 5889 5888 5887 5886 5884 5883 5882 5880 5879 5878 5877 5876 5876 5875 5874 5873 5872 5872 5872 5871 5871 5871 5871
5850 5854 5860 5865 5866 5868 5871 5874 5876 5879 5882 5884 5887 5889 5887 5887 5887 5887 5887 5887 5886 5886 5886 5885 5884 5883 5881 5880 5879 5878 5877 5876 5875 5874 5873 5872 5871 5870 5869 5869 5869 5868 5868 5867
5843 5848 5852 5856 5859 5862 5865 5868 5870 5873 5877 5880 5882 5882 5883 5883 5883 5883 5883 5883 5883 5883 5883 5882 5881 5880 5879 5878 5877 5876 5875 5874 5873 5872 5871 5869 5868 5867 5867 5867 5866 5865 5865 5864
5836 5841 5846 5850 5853 5856 5859 5862 5864 5868 5871 5874 5876 5878 5878 5878 5879 5879 5880 5880 5880 5880 5880 5879 5878 5877 5876 5875 5874 5874 5873 5872 5871 5870 5869 5867 5866 5865 5864 5864 5863 5863 5862 5861
5830 5835 5840 5844 5847 5849 5853 5856 5859 5862 5865 5868 5871 5873 5873 5874 5875 5875 5876 5876 5876 5876 5876 5876 5875 5874 5873 5873 5872 5871 5870 5869 5869 5868 5866 5865 5864 5863 5862 5861 5860 5859 5858 5857
5823 5828 5833 5838 5841 5844 5849 5850 5854 5857 5859 5862 5864 5866 5868 5869 5870 5871 5871 5872 5872 5872 5873 5872 5872 5871 5870 5870 5869 5869 5868 5867 5866 5865 5864 5863 5861 5860 5859 5858 5857 5856 5855 5854
5815 5821 5826 5831 5834 5838 5841 5844 5848 5851 5854 5856 5858 5860 5862 5863 5865 5866 5867 5867 5868 5868 5868 5868 5868 5868 5867 5867 5866 5865 5865 5864 5863 5862 5861 5860 5858 5857 5856 5854 5853 5852 5851 5849
5807 5813 5819 5823 5827 5832 5835 5837 5841 5846 5847 5849 5851 5854 5855 5857 5860 5861 5861 5862 5862 5863 5863 5864 5864 5864 5864 5863 5863 5862 5861 5860 5859 5858 5857 5856 5855 5853 5851 5850 5849 5847 5846 5844
5799 5804 5809 5814 5819 5824 5825 5830 5835 5839 5841 5842 5845 5847 5849 5851 5853 5854 5855 5856 5856 5857 5858 5859 5859 5859 5859 5859 5859 5858 5857 5856 5855 5854 5853 5852 5850 5848 5847 5845 5844 5842 5841 5839
5790 5795 5800 5805 5811 5817 5817 5822 5827 5830 5833 5835 5838 5840 5842 5844 5846 5847 5849 5850 5850 5851 5852 5853 5854 5854 5854 5854 5853 5853 5852 5851 5850 5849 5847 5846 5845 5843 5842 5840 5838 5837 5835 5834
5781 5786 5790 5796 5802 5805 5809 5813 5817 5821 5824 5827 5830 5832 5835 5837 5839 5840 5842 5843 5844 5845 5846 5847 5847 5848 5848 5848 5848 5847 5846 5845 5844 5843 5841 5840 5839 5837 5836 5834 5833 5831 5829 5827
5770 5776 5781 5786 5790 5795 5799 5803 5808 5811 5815 5818 5821 5824 5826 5829 5831 5833 5834 5836 5837 5838 5839 5840 5840 5841 5841 5841 5841 5841 5840 5839 5837 5836 5835 5834 5833 5831 5830 5828 5826 5824 5822 5820
5760 5766 5771 5775 5780 5785 5789 5793 5798 5802 5806 5809 5812 5815 5818 5820 5822 5824 5826 5828 5829 5831 5832 5832 5833 5833 5833 5833 5833 5833 5832 5831 5830 5829 5828 5827 5826 5824 5823 5821 5819 5817 5815 5813
5751 5756 5761 5765 5769 5774 5779 5783 5788 5792 5796 5799 5803 5806 5809 5811 5814 5816 5818 5819 5821 5823 5824 5824 5825 5825 5825 5825 5825 5825 5824 5824 5822 5822 5820 5819 5818 5816 5815 5813 5811 5809 5808 5806